GFSGBSN_sfc_thetae_087.txt.gz
Theta_e
319 319 319 318 318 317 317 317 317 317 317 317 317 317 317 317 317 317 317 317 317 317 318 321 323 319 313 303 307 327 339 340 333 312 309 305 302 302 304 309 314 312 316 326 331 331 330
319 319 318 318 318 317 317 317 317 317 317 317 317 316 316 316 317 317 316 316 316 316 317 320 323 321 305 294 311 335 332 329 319 308 306 306 305 307 307 311 311 316 316 316 329 328 330
319 318 318 318 318 317 317 317 317 316 316 316 316 316 316 316 316 316 316 315 315 316 317 319 324 318 307 302 323 330 328 318 317 308 305 306 309 312 313 312 316 316 311 313 325 328 326
319 318 318 317 317 317 316 316 316 316 315 315 315 315 315 315 315 315 315 314 315 316 318 320 324 313 304 318 317 326 323 318 316 308 307 308 311 310 311 315 311 304 301 295 317 329 331
319 318 318 318 317 317 316 316 315 315 315 315 315 315 315 315 315 315 314 314 316 318 320 324 314 308 307 324 310 311 323 311 313 309 307 315 311 305 307 304 298 299 296 297 308 328 328
318 318 318 317 316 316 316 316 316 316 316 316 315 315 315 315 314 313 313 313 315 319 321 323 319 303 307 305 307 309 311 314 317 313 309 306 303 300 301 298 292 295 295 293 296 321 326
317 317 317 317 316 316 316 316 315 316 316 315 315 315 314 314 313 312 308 303 298 298 311 304 307 307 311 307 307 306 310 311 310 306 299 302 300 297 302 303 302 300 297 296 301 304 309
317 317 316 316 316 316 316 316 316 315 315 315 315 314 314 313 312 311 306 300 299 302 295 305 310 312 314 309 299 304 306 305 306 300 303 301 297 304 307 306 303 300 298 297 301 303 299
317 317 316 316 316 316 316 315 315 315 315 315 314 314 313 312 311 306 302 302 307 302 292 298 301 301 302 303 299 302 304 302 305 302 302 299 304 310 307 303 302 297 295 297 297 302 321
317 317 316 316 316 316 315 315 315 315 314 314 314 314 312 310 303 301 304 306 308 300 288 295 295 301 300 299 299 310 308 305 303 303 303 301 307 306 302 303 302 293 302 302 300 294 290
317 317 316 315 315 315 315 315 315 314 314 314 314 313 311 309 300 302 307 307 304 300 282 299 296 303 297 296 299 299 305 302 298 300 298 298 299 301 299 301 304 300 304 300 298 292 290
317 316 315 314 314 314 314 314 314 314 314 314 313 312 310 305 300 305 307 304 300 288 284 293 297 294 294 294 297 302 301 302 302 298 296 297 302 300 300 303 304 305 299 296 292 290 285
316 315 315 314 313 313 314 314 314 314 313 313 311 309 308 308 301 304 303 300 288 284 296 294 291 292 292 290 294 297 295 293 290 287 286 293 294 297 299 295 299 297 291 286 285 284 284
316 316 315 313 313 314 314 315 314 314 313 311 309 307 307 308 303 304 301 294 285 293 291 297 297 294 291 292 293 294 292 289 294 290 286 285 286 293 299 293 290 292 291 287 282 282 285
316 315 314 315 314 314 315 315 314 313 313 310 307 303 303 306 308 302 297 287 285 290 295 295 295 292 291 295 293 293 289 289 293 291 286 284 286 296 298 298 295 292 288 292 287 285 286
316 315 315 315 314 315 315 315 314 313 312 310 302 303 304 309 306 300 293 289 290 296 297 296 290 293 288 291 291 289 289 293 294 295 290 288 284 291 296 297 297 292 293 288 287 283 282
315 315 315 315 315 315 315 315 314 313 311 308 303 299 305 304 304 296 288 288 293 297 299 294 291 290 289 289 289 287 288 293 296 295 292 287 286 288 292 290 289 289 287 286 287 287 284
315 315 315 315 314 315 315 315 314 312 309 304 301 295 307 304 295 289 289 292 298 295 297 295 294 292 290 291 288 288 288 292 298 294 289 288 284 282 285 292 295 293 287 285 283 283 285
315 315 315 315 314 315 316 315 313 311 309 301 299 298 305 302 289 288 291 295 295 295 294 294 292 293 292 288 286 290 292 297 297 293 287 289 281 278 281 286 290 287 290 286 285 283 282
315 315 315 314 315 315 316 315 313 311 310 302 296 292 296 296 291 291 289 290 291 298 295 295 293 292 290 287 288 287 289 296 298 298 304 293 280 279 277 280 285 286 289 290 285 282 283
314 314 314 314 315 315 316 315 313 311 309 302 296 292 293 289 291 291 291 292 292 291 295 294 292 292 288 284 285 286 289 290 294 297 293 287 281 283 283 287 289 288 288 289 286 286 283
314 314 314 314 315 315 316 316 314 312 309 302 296 295 294 289 290 290 290 289 292 293 292 289 289 293 290 286 286 285 287 286 285 290 288 287 283 283 281 288 287 285 290 291 292 295 292
314 313 314 314 314 315 316 316 315 312 308 302 302 301 295 293 289 288 287 290 293 293 295 295 292 289 289 291 293 291 291 290 288 286 284 285 283 280 277 285 283 281 287 293 295 295 296
314 313 313 313 314 315 316 317 316 313 309 304 303 301 294 289 291 291 294 295 294 293 291 295 293 288 292 294 294 292 293 290 291 288 286 284 283 281 278 279 275 282 295 298 295 296 296
313 313 313 313 314 314 315 317 317 314 312 306 304 303 295 289 294 295 295 294 293 293 292 293 296 295 295 293 287 285 286 287 288 289 288 286 283 279 278 277 281 288 291 293 289 291 297
313 313 313 312 313 314 315 317 317 315 313 305 304 306 300 293 293 300 295 294 289 288 291 295 297 295 294 287 286 280 280 283 283 285 287 288 286 284 279 278 277 285 292 296 296 284 296
312 312 312 312 313 313 314 316 316 316 314 305 305 305 303 295 296 295 292 292 293 290 289 291 294 293 293 285 279 277 278 283 275 278 279 278 279 278 278 277 284 291 293 295 283 283 295
312 312 312 312 312 313 313 315 316 315 315 306 306 307 303 298 299 301 301 297 295 292 289 292 291 291 288 284 283 279 278 282 275 279 281 279 276 274 277 281 279 293 293 286 289 290 292
311 312 312 312 312 312 313 314 315 315 315 310 304 307 307 301 301 305 305 305 304 301 295 291 291 290 289 286 285 283 280 281 279 275 285 279 283 279 281 281 289 291 289 291 290 289 289

GFSGBSN_sfc_thetae_090.txt.gz
Theta_e
319 319 319 318 318 318 317 317 317 317 317 316 316 316 316 316 317 317 317 317 316 317 317 318 321 319 311 300 304 330 337 335 330 319 307 304 303 303 305 309 313 311 314 322 330 329 329
319 318 318 318 318 317 317 317 317 316 316 316 316 316 316 316 316 316 316 316 316 316 317 318 321 320 303 291 311 333 331 329 315 308 306 304 304 306 305 308 310 314 314 316 328 327 331
319 318 318 318 317 317 317 316 315 315 315 315 315 315 315 316 316 316 316 315 315 316 316 318 322 317 305 299 325 328 327 321 314 307 304 305 308 306 310 310 316 314 308 313 323 326 326
318 318 318 317 317 316 316 315 316 316 315 315 315 315 315 315 315 315 314 314 315 316 317 319 324 312 298 313 322 325 319 314 315 306 305 306 309 307 308 313 309 302 300 294 317 326 329
318 317 317 317 317 316 315 315 315 315 315 315 315 315 315 315 315 314 312 313 317 319 319 323 313 305 305 324 314 319 319 315 309 304 306 313 307 303 305 302 298 299 295 294 313 327 327
317 317 317 317 316 316 316 316 316 316 316 316 315 315 315 315 315 312 311 313 322 321 321 322 319 302 305 304 306 311 320 317 312 307 306 304 302 299 300 298 294 295 294 294 297 318 323
318 317 317 316 316 316 316 316 316 315 315 316 315 315 315 314 313 312 307 303 297 296 310 301 306 304 307 311 305 304 310 311 310 306 297 300 297 295 300 302 301 299 297 295 299 314 319
318 317 316 315 315 316 316 315 316 315 315 315 315 315 314 314 313 311 304 300 300 300 294 303 309 310 312 307 300 302 309 306 305 298 301 299 295 303 306 305 302 299 297 296 299 304 303
318 317 316 315 315 314 315 315 315 315 315 315 315 314 313 312 311 305 300 301 305 300 291 297 300 301 299 305 299 300 304 304 304 300 300 298 303 308 306 302 301 296 295 295 297 301 317
318 317 315 314 314 314 314 315 315 315 315 314 314 313 311 310 303 301 303 306 305 299 288 293 294 300 299 299 298 307 307 305 303 301 302 301 305 306 301 301 302 293 302 301 299 293 289
317 317 315 314 314 313 314 314 315 315 314 314 313 312 310 309 300 301 305 304 302 299 281 297 295 300 295 294 299 299 304 302 298 302 301 299 300 300 299 300 303 300 302 300 298 292 289
317 316 315 314 313 314 314 314 314 314 314 314 313 311 310 304 299 303 305 301 299 287 283 293 296 292 293 293 296 300 299 300 300 296 296 296 299 299 299 302 304 303 297 294 290 288 285
317 316 315 314 314 314 314 314 315 314 314 313 311 309 307 307 300 303 301 298 288 283 295 293 292 294 290 290 294 295 294 292 289 286 285 292 293 295 297 293 296 296 290 284 284 284 284
317 316 315 314 315 315 315 315 315 314 313 312 309 306 306 307 303 303 299 293 284 291 290 295 295 293 291 292 292 292 291 289 293 289 285 284 285 292 297 292 289 291 290 286 281 281 285
317 316 315 315 315 314 315 315 314 314 313 310 307 303 302 305 308 301 296 285 284 288 294 294 293 290 290 293 292 291 288 288 291 290 285 284 286 295 296 296 293 290 286 288 285 283 286
317 315 315 314 315 315 315 315 314 314 312 309 303 302 301 304 304 298 292 288 288 294 295 294 290 292 287 289 289 288 288 291 292 293 289 287 283 289 294 296 295 291 291 287 286 282 281
317 315 315 315 315 315 315 315 314 313 311 309 302 297 302 301 301 296 287 287 292 296 296 292 290 289 288 289 288 286 287 291 295 294 291 286 285 287 290 288 286 288 286 286 286 285 283
316 315 315 315 314 315 315 315 314 312 309 304 299 293 304 301 293 287 287 290 296 294 295 293 292 291 289 289 287 286 287 290 295 292 287 288 283 281 283 290 292 290 286 284 285 283 283
316 315 315 315 314 315 315 315 313 311 309 300 297 295 302 300 288 286 290 292 294 293 292 292 291 291 289 286 286 289 291 296 297 292 285 287 280 277 281 285 288 287 289 284 283 282 281
316 315 314 314 315 315 315 315 313 311 309 302 295 291 295 294 289 289 287 288 290 296 293 293 292 291 288 286 287 285 288 294 295 298 303 292 280 278 278 280 284 285 288 288 284 282 282
315 313 314 314 315 315 315 315 313 311 309 300 294 291 291 288 290 289 289 290 291 290 293 292 291 291 287 283 285 285 288 289 293 296 291 287 281 281 282 286 287 287 287 287 285 285 284
316 314 314 314 314 315 316 316 314 312 309 301 297 294 291 288 289 288 289 286 290 290 290 288 289 291 289 285 285 284 286 285 285 289 286 286 284 282 281 287 286 287 291 291 293 294 292
315 314 313 314 314 315 316 316 315 312 308 301 300 298 294 291 288 286 286 288 291 291 293 293 291 288 288 289 291 290 289 287 287 286 283 283 282 279 276 284 283 280 286 293 293 294 294
314 313 313 313 314 314 316 316 316 313 308 304 301 298 292 288 290 290 292 293 292 292 290 293 291 288 291 294 293 292 290 289 290 287 285 283 281 279 277 278 274 281 294 297 294 295 296
314 313 312 313 314 314 315 317 317 315 312 305 302 300 293 289 292 293 293 293 292 292 291 292 294 293 294 292 286 284 284 285 288 287 287 284 283 279 278 276 280 286 291 292 289 291 296
313 312 312 312 313 314 314 316 317 315 312 305 302 303 297 293 292 298 293 292 289 287 290 293 295 293 293 287 285 279 279 281 282 284 285 286 285 283 278 278 277 284 292 295 295 285 295
312 312 312 312 313 313 314 315 316 316 314 305 304 303 300 294 295 295 292 291 291 289 289 290 292 292 291 284 278 277 277 282 275 279 280 277 279 279 278 278 283 290 293 295 284 284 295
311 311 311 312 312 313 313 314 315 315 315 306 305 304 302 296 297 299 299 294 292 291 289 291 291 290 287 283 282 278 277 283 274 278 280 279 277 276 279 281 279 293 292 288 289 292 293
310 311 311 311 311 312 313 314 315 315 315 308 303 304 305 301 299 303 303 302 303 300 294 290 290 289 289 285 283 281 278 281 279 275 283 278 282 279 281 282 289 291 289 292 291 289 290

GFSGBSN_sfc_thetae_093.txt.gz
Theta_e
319 319 319 318 318 318 317 317 316 316 316 316 316 316 316 317 317 317 317 317 317 317 317 318 318 320 317 305 305 335 336 340 330 319 316 314 312 314 311 316 320 319 320 322 331 333 331
320 319 318 318 318 317 316 316 316 316 316 315 316 315 316 316 316 317 316 316 316 316 316 317 318 320 309 299 319 332 330 330 322 315 312 314 313 315 313 315 317 320 321 321 331 332 331
318 318 318 318 317 316 316 316 316 316 315 315 315 315 315 316 316 316 315 314 314 315 316 317 319 318 308 303 327 330 329 323 318 314 311 311 316 313 316 315 320 318 314 319 322 329 329
318 318 318 317 316 316 316 316 315 315 315 315 315 315 315 315 315 314 313 313 313 316 316 317 322 318 303 316 332 327 323 319 316 314 313 313 314 316 315 318 313 310 309 307 324 327 329
319 318 318 317 316 315 315 315 315 315 315 315 315 316 315 315 314 313 312 313 320 320 319 322 318 315 310 325 319 323 322 316 315 313 314 314 312 312 312 311 308 308 307 303 318 328 328
318 318 317 317 315 315 315 315 314 314 314 314 316 316 315 314 313 312 312 313 321 324 323 323 321 309 312 310 314 323 323 318 312 311 310 307 308 308 310 310 305 305 303 304 309 324 327
318 318 317 315 315 315 314 314 314 315 315 315 316 315 314 313 312 311 311 313 305 305 317 307 309 308 309 314 313 316 321 318 313 311 303 306 304 303 309 311 309 307 306 304 306 321 324
318 317 316 315 315 314 314 314 315 316 315 316 315 314 313 312 311 311 309 308 307 307 301 306 309 311 313 314 304 309 320 312 312 304 307 303 302 309 312 310 308 307 306 304 306 312 319
317 317 316 314 315 314 314 315 315 315 315 315 314 314 313 311 311 309 307 309 311 308 300 301 305 305 306 311 304 305 314 313 311 305 304 301 306 311 309 309 307 307 306 304 303 305 319
318 317 316 314 314 314 314 315 315 315 315 315 314 314 312 310 307 308 309 311 310 307 297 298 301 304 305 306 303 309 312 314 309 305 307 306 311 309 308 307 309 306 308 306 305 303 300
318 317 316 314 314 314 315 315 315 315 315 314 314 313 311 309 308 309 311 310 307 306 286 300 301 307 303 303 306 304 309 309 307 307 308 305 307 308 307 308 310 306 309 307 305 304 301
318 317 316 316 315 316 315 315 315 315 314 314 312 311 310 307 307 310 310 308 307 295 286 297 301 299 300 301 302 304 305 307 306 305 305 301 304 305 307 307 309 309 304 302 302 302 297
318 317 316 315 315 315 315 315 315 315 313 312 311 309 308 309 309 310 309 308 296 290 299 296 297 299 298 297 299 300 299 298 298 299 300 298 298 301 302 302 305 306 303 296 295 294 295
319 317 316 315 314 315 315 315 315 314 313 311 308 307 309 311 313 311 308 303 291 294 295 299 299 299 295 298 297 298 297 296 299 297 295 295 292 298 301 299 300 303 303 297 291 292 295
318 317 315 315 314 315 315 315 314 314 313 311 307 311 311 311 312 310 306 293 291 294 297 296 298 295 295 297 297 297 295 295 297 297 295 294 293 299 300 301 300 299 299 300 297 295 296
318 317 315 315 315 315 315 315 314 314 312 310 313 310 309 309 310 307 301 292 295 298 298 298 293 295 293 294 295 295 294 296 296 298 298 296 292 296 298 300 301 300 299 297 299 292 292
319 317 315 315 315 315 315 315 314 313 311 309 309 307 310 307 309 304 295 295 297 300 299 297 294 293 293 293 294 293 292 295 297 298 299 297 296 294 298 294 293 298 298 297 299 296 294
319 317 315 315 315 315 316 315 314 312 309 308 307 302 310 309 301 297 296 296 296 297 299 298 298 295 293 293 292 292 292 295 300 297 294 296 295 291 292 296 297 297 294 294 297 295 296
319 317 315 315 314 315 316 315 314 311 309 310 306 304 310 309 296 296 297 297 298 297 296 296 295 296 295 293 291 293 295 298 301 299 294 295 291 289 290 294 296 294 294 295 294 296 296
319 317 315 315 315 315 316 315 313 311 309 307 305 300 304 302 298 297 296 295 295 298 296 298 296 296 295 293 295 293 294 297 299 301 302 298 291 289 290 291 293 291 291 293 294 295 294
319 316 314 314 314 315 316 315 314 311 309 309 303 298 298 296 297 297 297 296 294 294 297 298 296 295 294 292 293 292 294 296 298 299 297 297 290 291 291 292 292 290 290 291 293 294 294
318 315 314 314 314 315 316 316 314 312 309 309 306 303 299 297 296 297 295 295 294 294 295 294 294 295 296 293 294 292 294 295 294 297 295 295 291 292 289 291 292 291 294 294 295 297 300
318 315 313 313 314 314 315 316 315 312 310 310 307 305 304 295 295 295 296 295 295 296 297 297 297 296 295 296 298 297 297 297 297 296 293 294 292 290 286 289 290 287 293 296 297 299 301
317 314 313 313 314 314 315 316 316 313 310 313 310 306 303 296 297 296 297 297 296 297 295 298 297 296 297 302 301 300 299 298 298 296 295 293 292 292 287 288 281 291 300 300 298 299 302
317 313 312 313 313 314 315 316 317 314 311 313 311 309 304 298 299 298 298 297 298 299 297 297 299 300 302 300 296 293 293 294 294 295 295 295 294 289 287 286 287 292 297 298 297 295 301
316 313 312 312 313 314 314 316 317 315 312 313 311 310 307 303 300 302 299 299 297 297 298 299 301 302 301 298 294 288 287 290 289 291 295 294 296 293 288 285 283 291 297 301 301 291 301
315 312 312 312 312 313 314 315 316 316 313 314 312 311 310 304 304 303 300 299 299 298 298 299 300 299 300 296 292 290 289 289 287 288 289 291 293 290 289 287 290 296 297 300 289 293 301
314 311 311 311 312 313 313 314 315 315 315 313 312 312 311 308 307 304 304 300 299 300 298 299 298 298 297 293 292 292 292 290 287 289 290 290 289 289 289 287 284 299 297 294 298 301 300
313 311 311 311 311 312 313 313 314 315 315 310 312 310 312 310 307 309 309 308 307 306 303 298 299 298 300 295 294 293 291 289 291 288 292 289 293 292 292 292 296 300 297 300 300 299 297

GFSGBSN_sfc_thetae_096.txt.gz
Theta_e
319 319 319 318 318 317 317 317 317 317 317 317 317 316 316 316 317 318 317 317 317 316 317 317 318 320 320 311 310 335 337 344 333 329 323 319 316 314 312 318 328 325 325 326 331 335 333
319 319 318 318 318 317 317 317 317 317 317 316 316 316 316 316 316 317 316 316 315 315 316 317 318 321 315 304 325 330 333 329 325 323 319 319 315 317 314 319 326 329 326 324 329 331 334
320 319 318 318 317 317 316 317 317 317 316 316 316 316 315 316 316 316 315 315 314 315 315 317 319 321 312 308 330 327 332 326 324 322 317 319 318 316 317 318 326 325 319 320 324 329 329
319 319 318 317 316 316 316 316 315 316 316 316 316 315 316 315 315 315 314 314 315 316 316 318 322 320 307 324 333 325 326 323 322 321 320 320 320 319 318 324 322 320 318 315 323 327 331
319 319 318 317 316 316 315 315 316 315 316 316 315 316 316 315 314 314 313 314 321 321 319 321 323 321 310 325 322 323 323 317 317 318 318 318 318 317 319 316 317 318 313 312 318 327 329
319 318 318 316 315 315 315 315 315 316 316 316 316 316 315 314 313 313 312 314 323 324 324 326 323 315 317 314 322 322 325 321 317 314 313 312 313 312 315 314 308 313 313 311 315 324 329
319 318 317 316 315 315 315 315 316 316 316 315 316 316 315 314 312 311 315 320 314 317 319 311 312 311 314 317 323 321 322 320 316 312 307 309 307 305 310 315 317 317 314 311 316 327 326
319 318 317 316 315 316 315 316 316 316 316 316 316 315 314 313 311 312 317 313 312 313 306 311 311 312 315 316 310 318 322 314 309 304 309 305 304 310 315 316 315 315 311 311 312 322 323
320 318 317 316 316 316 315 316 316 316 316 316 316 314 313 312 312 314 316 313 317 315 306 306 310 310 311 314 310 313 318 316 309 306 306 304 307 313 315 314 312 315 312 310 310 312 316
320 318 317 316 316 315 316 316 316 316 316 315 315 314 313 311 310 319 315 317 318 316 301 301 305 308 311 312 306 316 319 317 312 306 307 306 312 312 314 312 313 309 315 311 309 308 308
319 318 317 316 316 316 316 316 315 316 315 315 315 313 311 308 317 316 316 318 317 312 290 303 305 313 310 307 308 309 318 314 310 307 308 306 310 311 310 313 315 311 315 313 310 308 308
319 319 318 316 316 316 316 315 315 315 315 314 313 312 310 313 318 317 318 318 313 300 289 300 303 303 304 308 307 309 310 314 315 311 310 310 315 315 314 315 315 314 312 311 310 309 301
320 319 317 316 316 315 315 315 315 315 314 313 311 309 311 316 315 320 320 314 300 295 302 298 299 303 304 304 305 306 305 306 305 303 303 306 308 307 309 310 314 311 308 300 300 299 299
321 319 317 316 315 315 315 315 315 315 313 312 308 308 313 318 319 320 317 307 294 297 299 303 301 301 300 303 303 303 303 303 304 305 305 299 297 305 305 307 308 308 308 301 295 297 300
321 319 317 315 315 315 315 315 315 314 313 311 307 321 321 318 321 318 311 301 298 299 301 300 301 298 299 301 301 302 302 301 302 304 301 301 297 303 304 306 306 308 304 309 303 306 301
321 319 317 315 315 315 315 315 315 314 312 310 322 319 316 317 319 315 308 296 300 302 302 302 297 300 297 299 299 300 300 301 301 303 306 303 297 301 302 305 306 307 310 302 303 297 296
321 320 317 315 315 315 316 316 314 313 311 309 318 312 316 318 317 313 303 300 301 304 303 301 299 298 299 298 300 298 296 300 302 302 305 305 303 299 303 301 302 304 304 306 306 304 299
320 319 317 315 315 315 316 316 314 312 309 310 315 308 317 318 309 310 303 301 298 302 305 303 303 301 299 298 298 298 297 299 303 302 300 303 303 299 299 301 302 303 303 305 301 301 304
320 320 317 315 315 315 316 315 314 311 310 317 313 311 318 316 303 301 303 301 302 300 301 301 300 302 302 299 296 298 299 301 303 302 301 302 301 295 296 300 301 300 302 304 305 306 303
319 320 317 315 315 315 316 315 313 311 310 315 312 305 309 310 310 303 301 299 298 302 301 302 301 302 301 299 302 299 298 299 303 302 302 302 301 297 295 297 301 298 297 300 303 301 303
319 320 316 315 315 315 316 315 314 312 310 315 312 304 306 303 303 304 303 301 298 297 301 302 300 300 300 298 299 298 299 300 301 301 302 303 297 299 297 297 297 296 296 296 299 302 301
319 319 315 314 314 315 316 316 315 312 309 318 310 308 309 305 303 303 299 299 297 298 299 298 299 299 301 299 300 298 300 301 300 301 302 302 297 298 294 295 295 295 297 298 298 301 305
318 318 314 313 314 315 316 316 315 312 312 317 318 314 310 298 301 301 300 299 299 300 300 302 301 301 299 300 303 304 304 303 303 302 298 298 298 296 293 294 294 291 297 298 300 303 307
318 317 314 313 314 315 316 316 316 314 312 321 318 314 308 301 305 301 299 300 299 300 298 300 301 301 302 307 306 305 304 303 303 302 302 297 298 296 296 293 286 297 303 302 301 303 308
318 316 312 313 313 314 315 316 317 315 312 321 322 317 310 304 304 302 300 300 302 302 300 300 302 305 308 304 300 296 297 297 298 301 301 302 298 294 291 290 293 295 300 300 300 300 306
318 315 312 312 313 314 315 316 317 315 313 322 320 321 314 308 304 305 303 301 302 301 300 302 305 308 306 303 299 291 292 293 293 295 301 300 301 296 293 289 286 297 302 306 305 296 307
317 314 312 312 312 313 314 315 316 316 314 319 319 322 317 308 309 308 305 304 305 303 303 303 303 303 306 300 295 295 296 297 292 292 294 296 296 293 293 291 295 301 304 306 292 299 308
317 313 311 311 312 312 314 314 315 315 315 317 319 322 317 310 312 310 309 306 306 305 301 305 302 303 302 297 298 297 296 297 293 296 296 296 294 295 295 291 289 304 302 297 305 308 307
316 312 311 311 311 311 313 314 315 315 314 312 317 321 320 313 313 316 314 313 311 310 308 307 305 303 307 302 302 303 298 299 297 294 299 294 298 298 297 298 302 305 304 307 307 306 304

GFSGBSN_sfc_thetae_099.txt.gz
Theta_e
320 320 320 319 319 317 318 318 318 318 318 318 318 317 317 317 317 317 318 317 317 316 317 318 319 320 321 314 315 335 335 334 326 333 329 322 319 318 314 317 326 328 328 330 336 335 334
320 320 319 319 318 317 317 317 318 317 317 317 317 317 316 317 317 317 317 317 316 316 316 318 320 320 318 309 327 330 327 322 324 330 325 323 320 320 317 318 324 330 328 328 332 334 334
320 320 319 318 318 317 317 317 317 317 316 317 317 316 316 317 317 317 316 316 315 315 316 317 320 321 317 313 329 331 328 322 327 327 321 323 321 318 319 318 329 330 325 325 329 332 330
320 319 319 317 317 317 317 317 317 316 316 317 316 316 317 317 316 316 315 315 316 317 316 318 321 321 312 323 330 328 328 323 326 327 323 323 321 319 318 323 326 325 324 317 325 327 331
321 320 319 317 317 317 317 317 316 316 317 317 317 316 316 316 316 315 314 315 321 322 320 320 322 322 313 330 322 326 325 320 321 322 322 321 319 316 318 316 316 322 315 315 319 329 329
321 320 318 317 316 317 317 317 317 317 316 317 317 317 316 316 314 314 313 314 321 322 322 326 327 318 321 315 321 323 325 321 317 317 316 314 314 312 314 315 308 314 315 317 318 324 328
321 319 318 317 317 316 317 316 317 317 316 317 317 317 315 315 313 312 315 323 319 319 320 317 312 315 314 321 324 320 324 321 317 314 309 311 308 306 311 313 316 318 316 315 320 326 325
321 320 319 317 317 317 317 317 317 317 317 317 317 316 315 315 313 312 316 317 315 316 309 316 315 316 318 321 314 317 322 316 313 306 311 308 304 311 314 315 315 318 315 315 322 327 323
321 320 319 318 317 317 317 317 317 316 316 317 316 315 314 313 313 314 320 316 321 319 309 309 313 314 314 316 312 314 318 316 310 307 308 306 308 313 313 313 314 317 314 314 314 323 319
322 320 319 318 317 317 316 316 316 316 316 316 316 315 313 312 307 321 317 320 321 319 304 304 307 311 314 315 311 320 320 317 311 306 309 309 312 311 312 313 315 311 317 316 315 314 310
322 320 319 318 317 317 316 316 316 316 316 315 315 314 312 308 320 317 319 322 321 317 293 305 308 316 314 310 311 313 320 318 312 308 310 307 308 309 311 313 315 312 318 315 314 312 315
323 321 320 318 317 316 316 316 316 316 315 315 314 313 312 316 321 320 321 321 317 301 293 301 307 305 306 308 309 314 314 317 318 312 311 310 314 315 315 317 317 318 315 316 314 311 305
323 322 320 318 316 316 316 316 316 315 315 314 312 310 312 322 318 322 323 317 301 296 305 301 301 305 304 305 306 308 307 307 308 304 304 309 310 316 315 314 316 315 312 303 302 302 302
322 322 320 317 316 316 316 316 315 315 314 312 309 309 316 321 324 323 320 310 297 301 301 305 304 304 302 306 306 307 307 305 310 310 306 303 302 309 315 314 311 312 311 304 297 299 302
321 321 320 317 316 315 316 316 315 314 313 311 308 322 323 325 324 322 314 301 300 302 304 302 303 300 301 303 304 305 305 305 307 309 304 303 302 310 310 314 311 311 307 312 306 308 303
321 321 320 317 315 315 316 315 315 314 313 311 321 321 322 323 323 319 309 298 303 306 305 305 299 301 298 301 301 302 302 306 305 308 311 307 301 307 308 311 312 310 314 305 306 300 298
320 320 320 317 315 315 316 316 315 314 312 310 320 314 320 325 321 313 303 304 304 307 307 304 302 300 300 301 302 301 301 304 306 307 310 308 306 303 306 306 306 308 307 309 309 307 301
320 320 320 317 315 316 316 316 315 312 310 308 316 309 321 321 309 310 306 306 299 305 308 306 306 303 301 301 301 301 300 303 305 307 305 308 306 301 302 307 308 309 308 309 303 303 306
319 319 320 316 315 316 316 315 314 312 310 318 314 313 319 317 305 304 306 304 305 304 304 305 304 305 306 302 299 302 302 304 305 305 305 307 303 299 299 303 306 305 308 309 309 309 305
319 320 320 316 315 316 316 315 313 312 311 315 314 308 311 314 312 306 303 302 301 304 303 305 305 307 305 303 306 301 301 303 305 304 305 308 303 302 296 300 304 302 303 306 307 303 305
319 319 319 315 316 316 316 315 314 312 311 315 315 307 311 306 306 306 306 303 300 300 303 305 303 304 304 302 302 302 303 303 304 303 306 306 300 302 302 301 302 302 302 301 303 305 303
318 319 317 315 315 316 316 316 315 313 310 319 313 310 309 308 306 306 300 302 300 300 302 300 301 302 303 303 304 302 304 304 304 305 306 306 301 302 300 300 300 299 301 301 302 304 305
318 319 315 314 314 315 316 316 316 313 312 318 319 315 313 301 304 303 304 302 301 302 303 304 303 303 302 303 307 308 309 308 307 305 303 304 302 300 296 301 299 296 300 302 303 304 306
318 318 315 313 314 315 316 317 317 314 312 323 319 317 310 305 306 303 302 302 301 303 301 302 304 304 306 310 308 307 307 306 305 305 305 301 302 301 296 299 289 300 306 304 303 305 309
317 318 313 312 313 314 316 317 317 315 313 322 323 318 312 307 306 303 302 303 304 303 303 302 305 308 310 307 303 299 299 300 301 302 303 304 302 297 294 294 297 299 302 302 302 303 310
317 317 312 312 313 314 315 316 317 316 314 322 322 325 316 309 306 307 304 304 304 303 303 305 308 312 308 304 300 294 294 297 296 298 303 303 303 299 297 291 290 300 304 307 307 297 310
316 317 312 311 313 313 315 316 316 317 315 318 322 326 318 310 311 309 307 307 309 306 305 306 305 305 308 302 297 297 298 300 296 295 297 297 298 294 295 294 298 305 307 307 295 300 310
316 316 311 311 312 312 314 315 315 316 316 316 321 324 318 312 314 312 310 308 309 307 303 308 305 305 304 299 299 300 299 302 298 300 299 298 297 296 297 294 291 307 305 298 308 312 311
315 316 311 310 311 312 313 314 315 315 315 314 319 323 323 315 315 317 317 316 313 313 309 310 307 307 308 302 305 305 302 302 300 296 303 297 301 300 300 299 308 308 308 312 311 310 310

GFSGBSN_sfc_thetae_105.txt.gz
Theta_e
321 321 321 320 318 318 317 318 318 318 318 317 317 317 317 317 317 317 318 318 317 317 318 318 319 320 317 310 308 328 344 342 320 312 311 321 321 316 313 318 320 325 328 331 335 334 334
322 321 320 320 318 318 317 317 317 317 317 317 317 317 316 317 317 318 317 317 316 316 317 318 319 320 313 303 328 330 323 320 313 308 314 323 322 318 314 315 310 325 331 331 333 332 332
323 322 321 320 318 318 317 317 317 317 317 317 316 316 316 316 317 317 317 316 316 316 317 318 319 318 310 308 325 324 319 311 310 310 319 327 327 314 314 309 314 326 322 327 329 328 328
323 322 322 320 318 317 318 317 317 318 317 316 316 317 317 316 317 316 315 316 316 317 318 319 319 315 306 321 318 324 319 313 312 315 322 326 322 315 308 312 312 310 320 315 325 328 329
322 322 322 321 319 318 319 318 318 318 316 316 316 316 316 317 317 316 315 315 317 323 324 320 313 311 309 325 316 321 320 313 312 316 321 327 316 307 309 304 301 307 306 314 321 329 326
325 322 322 321 320 319 318 318 318 318 317 317 317 317 316 317 316 315 315 315 318 319 319 318 316 309 313 314 316 320 321 317 314 316 316 311 306 301 301 298 294 301 305 316 318 325 326
325 325 322 321 320 319 318 318 318 318 317 316 316 316 316 316 315 314 313 315 311 312 316 309 310 314 315 318 319 318 320 316 313 310 303 305 298 295 299 303 306 307 310 313 320 327 322
325 324 323 320 320 319 318 318 318 318 317 316 315 315 315 315 314 314 310 310 315 309 304 314 314 316 318 315 311 315 317 309 307 302 306 301 297 303 306 307 306 306 307 316 323 327 322
324 323 323 321 320 318 317 317 317 317 317 317 316 315 314 314 313 308 311 314 320 312 300 306 312 311 310 314 310 310 313 310 304 301 303 299 303 308 305 304 303 304 301 314 317 319 323
322 322 322 322 320 318 317 317 316 316 316 316 316 316 315 313 310 314 312 318 319 313 295 303 305 308 312 312 308 317 316 311 307 301 302 301 307 306 303 302 304 297 313 319 315 312 307
321 321 322 321 320 318 316 316 316 316 316 316 316 315 314 312 308 310 316 314 312 309 288 304 304 314 311 305 306 310 316 311 305 304 303 300 303 303 302 304 307 303 321 318 315 310 312
320 320 321 322 321 319 316 315 316 316 315 315 315 314 312 311 311 312 316 318 310 294 291 300 306 304 303 305 306 312 311 311 311 307 306 303 308 306 305 308 308 313 310 314 313 310 303
321 321 321 321 320 319 315 315 316 315 315 314 313 312 309 316 311 318 318 311 294 289 306 300 299 302 301 300 303 308 306 301 299 295 297 302 303 307 309 303 308 309 301 295 296 299 299
321 320 320 320 320 318 315 315 315 315 314 313 310 309 311 315 317 320 315 306 294 301 301 307 304 302 298 301 301 304 302 299 305 303 299 295 293 303 309 304 302 303 300 296 295 293 294
321 320 320 319 319 318 315 315 315 314 313 312 309 316 315 318 318 317 309 297 297 301 305 303 302 298 296 303 303 303 299 299 302 303 296 298 297 308 310 311 309 304 299 305 298 298 294
321 320 320 319 319 318 315 315 315 314 313 311 310 312 313 320 323 316 305 299 302 308 307 303 297 300 297 299 300 299 300 304 305 306 306 303 294 305 309 310 309 303 304 296 296 290 289
320 320 319 319 319 316 315 316 315 314 312 310 313 306 317 322 315 307 300 301 306 309 305 303 301 300 300 298 300 299 300 304 307 304 304 300 297 301 305 300 300 301 298 299 298 296 291
319 319 319 319 319 315 316 316 315 312 311 312 312 303 318 319 302 306 301 305 304 304 307 305 305 304 301 301 299 297 300 301 305 303 299 301 299 297 298 305 305 302 299 299 294 293 300
319 319 319 319 318 315 316 315 314 312 311 310 307 311 317 310 297 302 305 303 304 303 303 304 303 304 303 300 298 301 302 306 305 304 298 300 295 291 294 297 300 297 301 298 298 298 296
318 319 319 320 318 315 316 315 313 312 312 309 309 306 308 307 307 303 300 301 300 304 303 304 304 304 302 299 301 299 301 304 304 302 315 308 297 295 289 293 299 296 300 301 297 293 302
318 318 319 320 317 315 315 315 314 313 312 310 313 306 309 302 302 302 303 302 301 299 303 304 304 303 300 297 299 300 303 300 303 307 304 299 294 297 297 301 301 299 299 301 296 299 301
318 318 319 319 317 315 315 316 315 314 311 315 311 305 307 303 305 302 300 299 300 300 302 300 299 302 301 300 300 299 302 298 297 301 298 301 294 297 294 300 300 297 299 301 300 309 309
317 317 318 319 316 315 316 316 315 314 312 317 317 316 311 303 301 300 301 301 301 302 303 304 302 302 300 300 303 302 303 304 303 299 299 298 297 294 290 298 297 292 296 298 298 300 311
317 317 318 319 316 315 316 317 316 315 313 314 319 314 310 304 303 301 302 303 302 302 301 302 304 303 305 305 304 300 299 301 301 299 299 296 296 295 291 294 284 294 304 302 299 301 312
316 317 318 319 315 315 316 317 317 316 314 314 321 316 313 305 305 302 303 304 303 302 301 304 304 305 305 302 296 293 292 292 297 298 296 297 294 291 287 288 293 298 302 299 297 307 315
315 316 317 319 315 315 315 317 317 316 314 315 322 322 316 310 303 307 304 307 300 301 301 304 307 307 304 298 295 290 289 295 294 296 296 297 296 292 290 286 285 296 302 305 302 299 314
314 315 316 318 315 314 314 316 317 317 315 313 318 324 316 310 310 309 304 305 306 303 301 303 304 303 302 295 291 292 294 300 292 294 291 291 291 288 288 288 295 302 304 305 292 296 309
314 314 315 317 315 314 314 315 316 317 317 314 317 325 315 311 311 312 311 307 307 305 300 305 303 303 300 295 294 295 296 297 295 295 294 293 290 288 289 286 288 306 305 299 303 308 310
314 314 314 316 315 313 314 315 316 316 316 315 318 323 323 314 312 315 314 316 314 311 305 305 305 306 304 300 299 300 296 298 296 290 297 289 296 293 294 295 303 306 305 307 309 307 308

GFSGBSN_sfc_thetae_108.txt.gz
Theta_e
323 322 321 320 318 318 317 317 317 317 317 317 317 317 317 317 317 317 317 317 317 317 316 317 319 319 315 307 305 323 350 341 332 314 308 309 316 316 312 314 317 325 329 331 334 335 335
323 323 322 321 318 318 318 317 318 318 318 317 317 317 317 316 317 317 317 316 316 316 316 316 319 319 309 297 321 331 327 319 311 306 306 312 320 321 314 312 311 316 331 332 333 332 334
323 322 322 321 320 319 318 318 318 318 317 316 316 316 317 316 317 317 316 315 315 315 316 316 318 317 310 304 323 325 318 311 308 305 312 312 318 319 312 307 312 332 324 325 330 330 330
325 323 322 322 320 319 318 318 318 317 317 317 317 317 316 316 316 316 316 316 316 317 319 317 319 312 300 318 315 320 316 310 309 305 308 318 322 318 308 308 309 318 321 317 327 326 330
325 325 323 321 321 320 319 318 318 318 317 317 316 316 316 316 317 317 316 316 317 320 324 320 308 305 301 323 312 313 316 311 308 305 309 318 318 309 306 301 297 299 306 313 317 327 325
325 325 325 322 320 320 319 318 318 318 318 317 316 315 315 316 316 315 315 315 316 319 319 317 315 305 311 311 311 317 317 313 307 308 310 311 304 299 298 296 291 295 304 312 317 324 324
324 324 324 323 320 320 319 318 318 317 317 318 316 315 314 313 315 313 309 310 308 307 311 303 306 311 314 314 316 315 318 310 308 307 301 303 297 294 298 299 300 300 306 316 321 325 323
322 323 323 323 321 320 319 317 317 317 317 317 316 315 314 313 314 312 307 304 311 307 299 313 312 314 316 313 308 313 316 307 305 300 302 299 295 301 303 303 301 300 301 311 320 323 321
321 321 321 322 321 319 319 317 316 317 317 317 316 315 314 314 313 305 306 308 314 310 296 303 311 309 309 311 308 309 310 306 303 299 300 296 301 306 304 301 299 298 297 312 316 321 322
321 320 320 321 321 320 319 316 316 316 316 316 316 315 314 312 308 308 307 312 312 309 290 298 300 308 309 310 306 314 312 308 303 299 300 298 306 304 301 300 299 293 303 317 315 312 304
321 320 320 320 320 320 319 316 316 316 316 315 316 315 313 310 303 303 310 308 312 303 285 303 303 311 307 304 304 308 314 308 303 302 299 297 300 300 300 301 302 299 320 317 314 311 309
322 321 321 321 321 320 319 316 315 315 315 315 315 314 312 308 305 307 309 310 304 291 286 299 304 302 300 302 303 308 309 307 308 303 301 301 307 302 301 305 304 319 316 313 312 307 299
322 321 321 320 320 319 318 315 315 315 314 314 312 311 309 312 304 310 310 304 292 286 303 299 297 299 299 297 300 305 302 299 296 294 293 301 303 303 304 299 303 307 304 293 295 296 295
321 321 320 319 319 319 318 315 315 315 314 313 310 308 307 311 310 310 308 300 290 299 298 303 301 299 295 297 295 302 300 296 299 298 293 292 293 299 304 301 299 300 300 294 290 291 296
321 320 320 319 319 319 317 315 314 314 313 312 308 304 307 310 312 310 303 292 292 297 302 301 299 295 291 300 300 300 297 295 298 298 293 292 295 305 307 306 304 299 300 302 297 298 297
320 319 319 319 319 318 315 315 315 314 313 311 304 304 304 312 315 308 298 294 297 305 305 302 294 298 293 296 296 297 297 301 301 302 298 297 292 298 306 306 306 304 305 297 296 289 290
318 319 319 319 319 318 315 315 315 314 312 310 306 298 308 311 312 301 292 295 303 308 307 299 298 296 296 295 296 295 298 302 301 300 301 298 293 296 301 297 298 299 297 298 296 293 289
317 317 318 318 318 317 315 315 314 312 310 309 305 298 310 310 299 295 293 300 303 300 303 302 302 299 297 298 296 295 297 301 307 301 296 297 293 290 295 303 302 300 297 296 292 292 296
318 316 318 318 319 317 315 315 314 311 310 304 301 302 313 306 292 292 299 300 300 299 298 299 300 301 302 297 293 298 301 308 308 300 293 297 290 288 292 295 301 295 298 295 293 293 296
318 317 318 318 319 317 315 315 313 312 311 304 302 300 301 299 297 296 294 295 295 301 300 300 300 299 300 296 297 297 300 304 304 301 315 304 290 291 287 291 296 295 296 297 293 293 299
317 318 318 318 319 317 315 315 314 313 311 305 306 302 299 295 296 294 296 296 296 294 299 298 297 298 296 291 295 296 300 300 301 307 301 297 292 293 297 298 298 298 296 297 297 298 294
316 318 318 318 319 316 315 315 315 313 311 309 303 301 303 297 295 296 295 292 296 296 297 294 296 298 299 294 295 294 296 294 294 298 296 295 293 296 295 299 298 295 297 299 308 308 307
315 316 317 318 319 316 316 316 316 314 310 308 311 308 305 300 299 294 293 295 298 298 299 300 301 297 296 297 300 300 302 299 297 296 295 294 293 292 290 296 294 289 294 294 299 309 309
315 315 317 318 319 316 315 316 316 315 312 306 311 307 303 300 297 296 300 300 298 297 296 298 300 296 298 300 299 297 294 297 296 294 295 292 292 292 290 293 285 294 299 299 302 311 311
316 315 316 317 319 316 315 316 317 316 314 307 311 308 305 299 301 299 300 299 297 295 296 299 300 299 297 295 291 288 288 290 293 295 292 293 290 287 286 288 292 297 300 298 304 305 313
316 315 315 316 319 316 315 316 317 316 314 307 310 311 308 301 298 305 301 301 294 294 294 298 301 300 298 291 289 284 285 289 290 293 292 292 291 289 287 285 285 295 301 305 306 296 313
315 315 315 315 318 316 314 315 316 317 315 308 308 313 308 302 302 302 298 298 300 296 294 296 298 298 296 288 286 284 286 294 285 288 288 286 286 285 285 285 292 299 305 306 292 293 311
315 314 315 315 317 316 314 314 315 316 316 310 308 313 306 302 304 307 306 302 300 297 293 297 297 298 296 290 290 290 288 291 288 292 292 289 283 283 284 283 284 304 304 297 301 305 309
314 314 314 314 316 316 314 315 315 316 316 314 309 314 314 305 303 308 309 310 307 303 299 297 298 297 299 294 293 293 291 292 289 284 293 287 292 290 291 291 299 302 303 305 307 306 306

GFSGBSN_sfc_thetae_111.txt.gz
Theta_e
323 322 322 321 320 319 317 318 318 318 317 317 317 317 317 317 317 317 317 317 316 316 316 316 316 318 313 303 301 312 349 338 334 315 307 307 310 313 310 313 320 320 326 331 334 332 332
325 324 322 321 320 319 318 318 317 317 317 317 318 317 317 317 316 317 317 316 315 315 315 316 316 318 306 290 309 328 328 328 320 307 305 310 316 318 315 312 311 316 328 332 333 333 333
326 325 324 321 320 320 319 317 317 317 317 316 317 317 316 317 316 317 316 315 315 315 316 315 317 316 308 299 322 323 320 313 308 304 303 308 316 317 315 310 311 329 322 328 330 331 329
325 325 325 323 320 320 319 318 317 317 317 317 317 316 316 316 316 316 316 316 316 316 317 316 318 310 299 311 313 318 313 309 307 302 305 311 316 317 314 312 317 320 319 315 327 327 329
323 324 324 324 321 319 320 318 317 318 317 317 317 316 315 315 315 316 316 315 317 318 321 319 306 303 299 318 311 311 315 309 305 302 303 313 315 310 305 299 296 299 303 311 316 328 327
321 323 323 324 323 320 319 319 317 317 316 317 316 315 315 314 313 314 314 315 317 319 318 317 314 303 308 309 309 312 315 310 304 305 307 307 304 298 296 295 290 294 302 310 313 321 324
321 321 322 322 323 321 319 319 317 317 316 316 316 315 315 314 312 313 308 310 307 305 308 300 302 309 312 313 314 313 315 307 307 306 300 302 296 293 297 298 299 298 297 307 320 324 322
322 320 320 321 322 321 319 319 317 317 317 317 317 315 314 313 313 312 305 301 306 305 300 310 309 311 314 311 307 309 313 304 303 299 301 298 293 300 302 301 300 298 297 310 319 322 321
322 321 320 320 321 321 320 318 317 316 316 316 316 315 314 314 312 304 303 306 310 308 296 301 309 308 307 309 306 306 310 305 301 298 298 296 299 304 302 299 299 295 297 302 314 320 322
322 321 320 320 320 320 320 318 316 316 316 316 316 315 314 312 304 306 304 307 309 307 290 296 299 306 307 308 304 313 311 306 301 299 299 298 303 303 299 299 299 290 300 304 316 311 305
322 321 321 320 320 320 320 318 316 315 315 315 316 315 313 310 302 302 305 307 306 301 284 301 300 309 305 305 305 306 311 307 301 299 297 296 297 298 298 299 301 297 307 303 314 307 306
322 322 321 321 320 320 319 317 315 315 315 315 314 314 312 306 303 307 310 306 301 290 287 299 302 298 302 300 301 307 307 307 307 302 300 300 304 302 300 302 302 318 314 311 308 305 297
322 321 321 320 320 319 318 316 315 315 314 314 312 311 309 311 304 307 307 304 292 286 300 298 297 297 297 297 298 303 301 298 295 291 290 298 300 302 303 296 302 313 301 294 295 294 294
321 318 319 319 319 318 318 315 315 314 314 313 310 308 307 310 308 309 306 299 288 297 296 302 300 297 294 295 295 299 297 295 297 295 291 290 291 298 302 299 296 306 300 294 289 291 294
319 318 319 319 319 318 317 315 314 314 313 311 308 303 305 308 311 308 302 291 291 296 300 300 296 294 293 299 298 299 295 295 297 296 291 290 293 303 303 303 302 298 297 300 295 293 296
318 317 317 318 318 318 317 315 314 314 313 311 303 302 302 312 313 307 298 293 296 303 303 300 292 295 291 295 296 295 295 300 298 299 297 295 291 297 303 304 303 300 302 294 292 288 289
318 318 317 318 318 318 316 315 314 314 312 310 303 298 304 312 310 302 294 294 300 305 306 297 295 294 293 294 294 293 295 300 300 299 300 295 292 295 299 296 295 298 295 294 294 291 290
317 317 317 318 318 318 316 315 314 312 310 306 299 295 307 308 300 293 292 298 302 297 302 300 300 297 295 296 294 293 294 299 305 300 294 295 291 290 294 300 300 297 295 294 291 290 297
316 317 317 318 318 318 316 315 313 311 310 303 298 297 308 305 294 292 294 298 297 297 297 298 298 299 297 293 291 296 298 304 304 299 293 294 289 288 292 296 297 294 295 292 291 295 295
316 317 317 317 318 318 315 314 313 312 311 304 299 296 299 299 295 293 294 294 293 299 297 298 298 298 295 294 295 293 298 302 302 298 314 302 289 290 287 289 292 292 296 294 291 294 297
315 316 316 317 318 318 315 315 314 312 310 304 303 299 297 294 294 292 293 294 294 293 296 297 297 298 294 291 293 295 298 298 299 306 299 295 289 290 296 296 295 295 295 296 292 295 295
316 315 316 317 318 318 315 315 315 313 310 306 300 299 300 296 294 293 292 290 295 294 294 294 294 296 296 293 294 293 296 294 295 297 295 293 289 292 292 300 296 293 295 297 306 308 306
317 316 315 316 318 318 315 315 315 313 309 306 307 305 302 299 296 292 291 293 297 296 298 299 298 295 294 294 296 298 298 297 295 293 294 293 290 289 286 297 295 290 293 294 305 308 308
316 316 315 315 318 319 316 316 316 315 311 302 307 305 301 296 295 294 297 298 296 296 295 297 298 293 296 297 296 294 292 296 294 293 294 292 290 288 286 291 285 295 300 301 307 309 309
315 316 316 315 317 319 316 316 317 316 314 304 306 305 302 297 300 300 300 297 296 294 295 297 298 297 296 294 290 287 287 289 292 291 291 292 289 286 284 285 292 297 299 297 298 304 312
315 315 315 315 316 318 316 316 316 316 314 305 305 308 306 296 296 302 299 298 293 292 293 296 299 297 295 289 288 282 283 285 288 290 290 290 289 287 284 283 284 294 301 305 304 295 311
315 315 315 315 315 317 316 314 316 317 315 307 306 309 306 297 300 298 297 297 297 294 292 294 297 299 293 286 284 282 284 292 283 286 285 284 285 283 283 283 290 300 304 306 292 292 312
314 314 315 315 315 316 315 314 315 316 316 308 308 310 305 300 300 305 305 300 299 295 292 294 295 296 293 289 289 288 286 289 286 289 288 286 283 282 282 282 283 302 303 296 300 301 309
314 314 314 314 314 316 314 314 315 315 315 312 306 312 310 302 302 305 306 306 305 303 297 294 295 296 297 292 291 291 290 290 287 283 292 286 290 289 288 288 297 300 302 305 307 305 307

GFSGBSN_sfc_thetae_114.txt.gz
Theta_e
326 325 324 322 320 319 318 318 317 317 317 317 317 317 317 316 317 317 317 316 316 315 315 316 316 317 310 300 298 311 345 335 331 317 307 305 310 311 308 312 318 318 321 329 333 332 330
326 326 325 323 321 319 318 318 317 317 317 317 316 316 316 316 316 316 316 316 315 314 315 315 315 318 304 289 305 328 329 327 320 307 305 309 312 316 313 312 312 317 326 331 332 329 332
324 325 325 325 323 320 318 318 317 317 317 317 316 316 316 315 316 316 316 315 315 315 315 315 316 316 306 295 314 324 323 317 311 304 302 306 318 317 315 310 315 327 322 329 330 330 327
323 323 324 324 324 321 319 319 317 316 316 316 317 316 315 315 315 314 315 315 315 315 315 315 318 309 294 308 312 317 309 307 306 301 305 307 318 315 313 311 316 320 317 313 326 327 329
322 321 322 323 323 322 320 319 318 316 316 315 316 316 315 314 313 313 314 315 316 317 317 318 305 301 296 317 311 311 311 307 304 300 301 314 314 308 304 298 297 303 304 310 318 327 325
322 321 321 322 322 322 320 318 318 317 315 316 316 315 315 314 313 312 313 314 320 318 317 317 314 301 306 307 310 309 313 306 302 302 303 303 301 297 295 295 290 296 301 305 310 321 324
323 322 321 321 321 321 321 319 318 317 316 316 316 315 314 313 312 311 307 308 304 301 306 298 298 305 309 312 312 311 314 308 304 301 299 301 296 294 296 298 298 297 295 298 319 323 321
324 323 322 320 320 320 320 319 317 317 316 317 317 315 314 313 312 312 305 299 303 306 298 308 308 308 311 310 305 308 310 302 301 298 301 296 293 298 301 300 298 297 295 308 319 323 320
323 322 322 321 321 320 320 319 317 316 316 316 316 316 315 313 311 304 301 304 308 306 296 300 307 306 306 308 305 305 309 304 300 297 298 295 298 302 301 298 297 293 292 307 312 320 322
323 322 321 321 321 320 320 318 318 316 316 316 316 315 314 311 302 304 303 308 307 305 289 295 298 306 306 307 303 311 310 305 299 297 298 297 302 301 298 298 298 289 299 304 315 308 302
322 322 320 320 320 320 319 318 317 315 315 315 315 315 312 309 300 302 304 304 303 299 283 300 299 307 303 304 305 304 309 306 298 298 297 296 296 297 296 298 300 296 307 304 315 305 303
321 320 319 320 320 319 318 317 316 315 315 315 315 314 311 306 304 307 310 305 300 290 286 298 300 298 300 300 300 306 305 306 305 300 298 298 302 300 299 301 301 317 311 308 306 303 295
319 318 319 319 319 319 317 316 315 315 314 314 312 311 309 310 301 307 307 304 291 286 298 297 295 296 297 296 298 302 300 296 295 291 291 296 298 301 302 296 302 308 302 294 292 294 294
318 318 318 318 318 318 317 316 315 314 314 313 310 308 307 309 308 308 306 300 287 296 295 301 297 294 294 296 296 298 296 294 296 294 290 290 290 298 300 299 296 303 300 294 288 290 293
317 317 316 317 318 318 317 316 314 314 313 312 308 301 302 306 310 307 302 290 290 295 300 299 295 293 293 298 297 297 294 293 295 295 290 289 291 301 302 300 303 302 299 300 294 291 295
316 316 317 317 318 318 317 316 314 314 313 310 301 301 301 309 310 305 298 292 295 301 302 298 292 294 289 294 295 294 294 298 296 298 295 293 289 295 301 302 301 300 302 294 291 287 286
316 316 317 317 318 317 317 315 314 314 312 309 300 298 302 309 305 302 293 292 299 303 305 297 294 292 291 292 293 292 294 299 300 299 296 294 292 294 297 295 294 296 294 293 293 291 289
315 315 316 317 317 317 317 315 314 312 310 305 296 296 305 306 298 291 291 296 300 297 303 299 299 296 293 295 292 292 294 297 303 299 292 293 291 289 293 298 298 295 294 292 291 289 294
316 316 316 317 317 318 317 315 313 312 310 304 297 296 306 304 294 291 292 297 295 296 295 297 297 297 296 292 289 294 297 302 303 297 292 293 288 287 291 294 295 292 294 290 290 295 294
316 316 316 316 317 318 317 314 313 312 310 304 299 294 297 296 293 292 293 292 292 299 297 296 297 297 294 293 293 292 295 300 300 298 311 300 289 290 287 288 291 291 294 293 291 291 294
316 316 316 316 317 318 317 314 314 312 310 302 300 296 296 293 294 291 292 292 293 292 296 297 295 296 293 290 292 292 296 295 297 304 296 293 289 291 294 295 295 294 293 294 291 292 294
316 317 317 315 316 318 317 315 314 313 310 304 299 298 298 295 295 290 290 289 293 292 294 293 293 295 294 292 293 291 293 292 292 296 293 291 289 290 292 298 297 293 294 297 305 305 304
316 316 316 316 316 318 318 315 315 314 309 303 304 303 300 296 290 291 289 291 294 295 297 298 296 293 292 292 294 294 296 294 292 293 293 292 292 289 286 293 296 292 292 294 299 308 307
316 316 316 316 316 318 318 315 316 315 311 302 305 304 296 293 293 293 295 295 294 294 295 296 295 291 293 296 294 292 291 293 294 291 293 292 290 290 286 292 286 293 300 308 307 308 309
315 316 315 316 316 317 317 316 316 315 314 302 304 303 299 293 297 298 298 296 295 294 294 295 297 296 294 292 289 286 286 289 291 290 290 292 289 286 285 286 289 296 297 298 299 302 311
314 315 315 315 315 316 316 316 316 315 314 303 304 306 302 295 295 300 297 296 292 290 292 295 298 296 294 288 287 282 281 284 286 289 289 290 289 289 284 283 282 291 301 306 306 292 312
314 314 315 315 315 316 316 315 315 315 315 305 306 306 301 296 299 297 296 295 295 292 291 292 296 298 291 285 283 281 283 291 282 284 283 284 284 283 284 283 289 297 302 304 291 292 311
314 314 314 315 315 315 316 314 314 314 316 308 308 308 303 298 299 303 303 298 297 293 291 293 294 295 292 288 287 286 285 288 284 287 286 285 282 282 282 282 283 300 302 294 297 305 311
314 314 314 314 314 315 316 313 314 314 315 312 306 311 308 302 302 304 305 305 303 301 296 294 294 294 296 291 289 289 289 288 286 283 290 286 288 288 286 286 295 299 300 305 306 307 310

GFSGBSN_sfc_thetae_117.txt.gz
Theta_e
325 325 325 325 323 320 318 318 318 318 317 317 317 317 316 316 316 316 316 316 316 315 315 315 316 316 316 304 301 311 333 336 336 317 315 314 311 315 316 317 319 319 322 328 332 333 331
323 324 325 325 324 321 319 319 318 317 317 317 317 317 316 316 316 316 316 315 315 314 315 315 315 317 311 296 311 331 331 331 326 314 311 316 314 321 319 318 320 322 328 332 332 332 332
323 322 323 324 324 323 320 318 319 318 316 316 316 317 316 315 315 315 315 314 314 315 315 315 315 317 308 301 316 331 325 321 320 313 309 314 320 321 321 314 325 330 327 330 330 331 329
323 322 322 322 323 323 321 319 318 317 316 316 316 316 315 314 313 313 313 314 314 315 314 315 317 315 301 308 318 322 317 314 311 311 312 312 321 322 320 318 323 325 326 320 328 330 330
323 322 322 321 322 322 321 320 317 318 317 315 315 316 315 314 313 312 312 313 314 316 316 318 314 310 300 320 313 318 316 311 313 310 310 312 316 316 312 310 316 316 315 317 323 330 327
324 323 322 322 321 321 321 320 317 318 317 317 315 316 315 314 313 311 312 315 321 320 318 318 315 307 311 309 314 315 316 312 308 308 307 310 312 312 308 306 305 312 309 314 316 325 326
324 324 323 322 321 321 320 320 318 318 317 316 317 316 314 314 313 312 311 316 310 309 311 305 304 307 311 316 315 312 313 310 308 306 304 309 309 308 309 307 306 307 304 308 321 327 325
324 323 323 322 321 321 321 320 318 318 317 316 316 316 314 314 313 311 308 307 310 311 305 310 310 309 311 314 309 311 315 306 303 300 306 307 307 309 307 306 305 304 303 316 322 326 324
323 322 321 321 321 321 320 319 318 317 316 316 316 316 314 312 311 308 307 308 313 313 305 305 310 310 310 313 309 309 313 308 303 305 306 307 308 306 305 304 304 303 303 315 316 323 324
321 320 319 320 320 320 319 318 317 316 316 316 316 315 313 311 306 310 308 312 312 312 299 300 304 310 311 312 308 315 315 311 306 305 306 309 306 304 304 303 304 302 305 312 319 316 309
319 319 318 319 319 320 318 317 317 316 315 315 315 314 312 310 308 307 309 312 310 306 289 304 305 314 311 309 310 310 316 311 306 305 306 303 303 304 303 304 306 304 307 309 314 315 312
318 318 318 317 319 319 317 317 316 315 315 315 314 312 311 309 308 312 314 310 306 297 289 301 304 305 306 307 307 310 311 312 309 306 306 305 307 306 306 306 307 318 312 315 316 313 302
317 318 318 317 317 318 317 317 316 315 314 314 312 310 309 312 308 312 312 308 298 293 302 300 301 303 304 302 304 307 306 304 302 299 300 304 304 307 307 304 309 317 311 303 302 302 301
318 318 317 317 317 317 317 317 315 314 314 313 309 308 310 312 314 312 312 307 293 299 299 305 301 302 300 302 301 303 303 301 303 302 300 297 294 304 307 306 303 310 308 301 295 298 301
317 316 316 317 317 317 317 317 314 314 313 311 308 309 310 311 313 312 310 298 297 300 303 302 301 299 299 302 302 302 301 302 304 305 300 298 298 306 307 306 309 307 304 309 304 305 304
316 316 316 317 317 317 316 316 314 314 313 310 309 309 308 313 314 312 306 296 301 303 306 303 297 299 297 299 300 301 300 303 301 303 304 303 298 304 307 308 307 310 311 301 304 298 296
315 316 316 317 317 317 317 316 314 314 312 310 308 307 310 315 312 311 301 299 302 305 307 302 299 299 299 299 300 300 300 303 304 303 305 304 302 302 305 304 303 305 305 304 306 303 299
316 316 316 316 316 317 317 316 314 312 310 308 306 304 311 312 306 301 301 300 299 302 305 304 304 302 300 300 300 300 300 302 307 305 301 303 304 301 301 305 304 304 303 305 301 300 305
316 316 316 315 316 317 317 316 313 312 310 309 307 307 313 311 302 303 301 301 300 300 299 302 302 303 303 300 299 301 302 306 307 303 301 303 300 296 299 302 303 301 302 302 303 309 305
316 316 317 316 315 317 317 316 313 312 311 310 308 303 306 305 301 301 301 298 298 301 301 302 302 303 302 301 303 300 301 304 304 307 309 309 300 300 294 299 301 298 300 301 302 302 304
316 316 316 316 315 317 317 316 313 312 310 310 308 304 303 301 302 300 300 298 298 297 302 303 301 300 301 299 300 300 302 302 303 305 303 304 300 300 300 300 300 299 299 306 301 302 304
316 316 316 316 315 317 316 317 314 313 310 312 308 307 306 304 302 299 297 299 298 298 301 300 299 299 302 299 300 299 301 302 301 304 303 302 299 301 299 301 301 298 300 304 307 307 308
316 316 316 316 317 316 316 317 315 313 311 313 313 311 308 298 299 300 299 299 300 302 302 303 301 301 300 299 301 302 305 303 301 302 302 302 301 299 295 299 300 296 300 302 308 312 312
313 315 316 316 316 316 316 317 315 315 312 310 313 313 305 299 301 299 298 300 299 300 301 301 302 301 302 304 303 301 302 302 301 300 302 301 301 300 296 299 291 300 307 309 309 312 315
314 315 315 316 316 316 316 317 316 315 314 311 313 311 307 301 302 302 301 300 301 302 301 301 303 303 302 302 300 297 298 299 299 299 300 303 302 296 295 293 297 300 302 302 302 302 313
315 315 315 316 316 316 316 317 316 315 314 311 313 314 309 306 302 303 302 302 302 300 302 302 307 307 302 300 298 292 291 293 294 296 299 300 303 299 294 290 288 299 304 309 309 299 315
314 314 314 315 315 316 316 316 315 315 314 313 315 314 310 306 307 305 304 303 303 302 302 302 303 306 303 299 296 294 295 298 296 293 294 296 297 294 294 292 295 302 307 309 297 301 316
314 314 314 314 315 315 315 315 314 314 315 314 316 317 312 308 308 309 308 306 304 304 302 302 303 304 303 299 298 297 298 300 298 298 297 295 295 294 293 291 288 306 308 301 308 313 316
314 314 314 314 315 314 315 316 314 314 315 314 316 317 315 312 310 311 313 312 309 308 306 305 304 304 306 302 301 302 299 300 297 296 299 296 299 299 297 298 304 307 308 314 315 314 318

GFSGBSN_sfc_thetae_120.txt.gz
Theta_e
324 324 324 324 325 323 321 319 319 318 317 318 318 318 317 316 317 317 317 317 316 316 315 315 316 317 318 310 308 329 334 340 327 325 321 318 315 315 320 326 327 326 330 332 334 333 332
322 322 323 323 324 324 322 320 318 319 317 317 317 317 317 316 316 316 316 316 315 315 315 316 316 317 315 302 318 332 323 333 325 321 319 320 315 320 325 325 325 326 327 330 333 332 334
323 322 322 322 323 323 322 321 319 318 317 316 316 317 317 316 315 315 315 314 315 315 316 316 317 319 312 306 319 334 323 327 324 321 318 320 320 326 327 323 323 324 326 330 332 332 330
324 323 322 322 322 322 322 321 319 318 318 317 316 316 316 315 314 313 313 313 315 315 315 316 317 319 306 313 330 326 323 323 322 318 319 321 324 327 326 326 328 324 326 321 330 331 327
325 324 324 323 322 322 321 321 320 318 318 317 316 316 315 314 314 313 312 313 315 316 317 318 319 314 304 318 320 319 319 314 316 315 316 316 322 324 322 319 320 323 316 320 325 332 328
324 324 323 323 322 322 321 321 320 318 318 318 316 316 315 314 313 312 312 316 319 318 319 320 319 312 312 311 319 317 317 314 312 312 311 312 317 318 319 316 312 315 316 321 322 330 329
324 323 323 322 322 322 321 321 319 319 318 317 317 316 315 314 314 312 315 322 318 316 315 312 308 310 314 319 321 316 317 314 312 311 306 312 311 311 316 316 315 319 316 317 324 330 327
322 321 321 321 321 321 321 320 319 318 317 317 316 316 315 314 313 311 315 314 315 315 309 315 314 313 316 319 312 315 317 310 307 304 309 309 308 316 319 313 312 315 313 317 324 329 328
320 320 319 320 320 321 319 318 318 317 317 317 316 316 314 313 310 312 315 315 320 319 310 309 313 314 315 316 312 312 314 310 306 305 308 305 310 317 312 311 310 311 311 318 318 325 327
319 319 318 318 319 319 319 317 318 317 316 316 316 314 313 312 309 319 315 319 320 317 304 304 309 312 315 315 309 318 316 309 306 304 308 309 313 312 312 311 313 310 311 318 321 318 312
319 319 319 318 318 318 318 317 317 317 316 316 316 314 312 309 317 315 316 321 319 314 292 306 309 318 318 313 313 313 318 314 306 308 310 308 309 309 308 310 312 310 311 312 314 312 313
319 319 319 318 318 318 318 316 317 316 315 315 314 313 311 313 317 318 321 318 315 300 292 302 308 308 309 312 312 314 314 317 314 310 311 310 314 311 311 312 312 313 310 312 314 311 304
319 318 318 318 318 318 317 316 317 315 314 314 311 310 311 318 315 321 320 316 303 297 305 302 303 308 308 308 308 310 309 307 305 302 304 307 308 311 311 307 310 312 310 304 302 303 302
318 317 317 317 317 317 317 317 316 314 314 312 309 308 312 318 322 318 316 311 297 301 302 307 305 308 304 307 307 308 307 303 307 306 304 302 299 307 311 308 306 310 311 304 299 300 304
317 317 317 316 317 317 317 317 315 314 314 311 308 318 318 319 319 319 314 303 301 303 306 303 304 303 304 305 306 306 306 305 306 308 303 301 300 309 310 311 311 307 305 313 306 309 305
317 317 317 316 316 317 317 317 315 314 313 311 320 317 315 320 320 317 311 300 304 308 308 306 300 304 301 303 303 305 304 308 306 308 311 307 301 307 308 312 311 310 313 303 306 300 299
317 316 317 316 316 316 317 317 315 314 312 310 318 311 318 321 320 316 305 304 306 310 309 306 303 302 303 303 304 303 304 307 307 307 310 309 307 305 310 307 305 306 306 307 308 306 301
316 315 316 316 316 316 317 317 315 312 310 311 316 307 320 322 310 312 305 305 300 307 309 308 308 306 305 305 304 303 303 306 310 310 306 310 307 303 305 310 311 311 308 309 302 303 307
316 316 316 316 316 316 317 316 314 312 310 319 316 312 320 318 306 305 307 304 306 305 306 306 304 307 308 305 303 305 306 309 308 308 308 310 305 300 302 306 308 307 308 309 309 309 305
316 316 315 316 316 316 316 315 314 312 311 316 316 306 313 316 315 308 304 303 302 306 306 307 306 308 306 304 307 305 305 307 308 309 309 308 307 304 299 303 308 304 305 307 307 303 304
317 317 317 316 316 316 316 315 314 312 311 316 318 310 311 306 309 309 308 304 301 300 306 308 306 305 304 302 303 303 306 306 307 309 309 309 304 305 305 304 304 304 304 306 306 307 304
314 315 316 317 316 315 316 315 315 313 311 321 316 315 315 312 307 308 302 304 302 302 304 302 303 305 305 303 304 303 305 307 305 308 307 307 304 305 302 304 304 302 304 307 307 308 309
314 315 315 316 317 315 316 315 316 313 313 320 322 322 316 302 307 306 306 305 304 306 306 307 305 304 302 303 306 308 309 308 308 307 304 305 305 302 299 304 303 300 303 305 308 313 312
314 315 316 316 317 317 316 316 317 314 313 320 321 320 312 305 308 306 305 305 304 305 304 305 306 304 306 309 308 308 309 309 308 309 310 305 305 303 299 303 294 305 310 309 308 312 318
315 315 315 315 316 317 316 316 317 315 314 321 323 319 314 306 307 306 305 306 307 307 305 305 307 308 310 308 302 300 301 303 304 306 308 310 307 301 297 297 301 303 307 307 306 306 312
315 315 315 315 316 316 316 316 316 315 314 320 324 323 317 309 307 308 307 307 306 307 305 306 312 315 310 307 304 294 294 298 297 300 307 306 309 303 301 295 292 304 308 311 311 302 315
314 314 315 315 316 316 316 315 316 315 314 318 324 325 318 311 313 313 309 308 311 309 306 308 309 310 311 304 299 297 297 302 297 296 299 301 302 299 299 296 299 307 310 311 300 305 317
314 314 315 315 315 315 315 315 316 314 315 317 324 326 320 313 313 314 313 311 311 311 304 309 307 309 307 301 300 301 299 304 302 302 300 299 298 297 298 296 293 311 310 304 314 317 317
314 314 315 315 315 315 315 315 316 314 314 315 322 326 325 318 314 319 318 318 316 314 311 313 309 308 309 305 305 308 302 305 302 297 307 299 303 301 300 302 312 314 314 317 320 320 320

GFSGBSN_sfc_thetae_123.txt.gz
Theta_e
323 323 323 324 324 324 323 321 319 319 319 317 318 318 319 318 317 317 317 317 317 317 316 317 317 318 319 313 312 330 337 333 323 327 326 323 318 318 322 329 332 328 331 331 332 334 335
324 323 323 323 323 323 323 322 320 318 318 317 317 318 318 317 316 317 317 316 316 316 316 317 318 317 318 308 319 330 323 318 319 324 323 322 319 320 324 329 327 332 332 331 334 334 331
326 325 324 323 323 323 322 322 321 318 318 318 316 317 317 316 316 315 315 315 315 316 317 317 318 319 316 311 320 333 326 321 321 324 320 322 323 319 331 327 330 330 326 332 331 333 330
325 325 324 324 323 323 322 322 321 318 318 317 317 317 317 316 315 315 314 314 314 316 317 317 318 320 314 316 332 331 326 325 325 326 324 324 323 323 329 331 327 324 326 322 331 333 331
324 324 323 323 323 322 322 322 321 319 319 318 317 317 316 316 315 314 313 313 316 317 318 319 320 319 309 319 324 326 325 320 320 321 322 321 320 324 328 321 322 322 315 318 325 332 330
323 322 323 322 323 322 322 321 320 319 318 318 317 317 316 316 315 314 313 315 319 318 320 322 320 313 315 311 322 321 323 321 316 315 314 313 315 319 322 319 310 314 315 320 323 329 329
322 322 321 321 322 322 321 319 319 319 318 318 317 317 317 315 315 314 315 325 321 319 319 315 311 314 311 320 322 317 318 314 314 312 307 311 309 313 318 321 318 318 317 315 322 332 328
321 320 319 319 320 320 320 318 319 318 317 317 317 317 316 315 313 313 316 318 317 318 311 316 314 316 318 321 313 316 318 311 309 305 310 308 306 314 320 320 317 316 316 317 326 330 327
320 320 320 319 319 319 319 318 318 318 317 317 317 316 314 313 312 313 320 319 324 322 312 311 313 314 315 318 313 313 316 314 308 306 308 306 310 315 318 317 313 315 315 317 319 327 327
320 319 319 319 319 319 319 317 318 318 317 317 316 315 314 313 309 323 318 323 323 322 306 305 309 314 317 316 312 318 317 313 309 305 308 309 313 315 315 314 315 310 316 318 316 320 314
319 319 319 319 318 319 319 317 317 317 316 316 315 314 313 310 318 317 320 324 323 320 295 308 310 321 318 312 313 313 318 313 306 307 309 307 310 311 312 313 317 311 317 316 318 317 316
319 318 318 318 318 318 318 317 317 317 316 315 314 313 312 316 320 321 324 323 321 304 294 304 311 311 311 314 313 313 312 317 315 310 311 312 316 315 314 316 315 317 314 314 315 314 306
318 318 318 318 318 318 318 316 317 316 315 314 312 311 312 321 319 324 323 318 305 297 307 303 306 310 309 309 311 309 309 309 306 304 305 310 310 314 314 311 314 314 311 304 302 304 304
318 318 318 317 317 317 317 317 317 316 314 313 310 309 314 320 324 323 319 311 299 302 304 309 308 309 306 309 309 309 309 306 310 309 305 304 301 310 313 311 309 310 311 306 300 302 306
318 318 318 317 316 316 317 316 316 315 314 312 308 322 321 322 322 322 315 303 301 305 307 305 306 304 304 307 308 309 308 307 308 310 304 304 304 312 312 313 312 309 307 314 307 308 305
317 316 317 317 316 316 317 316 316 315 313 311 322 317 317 321 323 317 312 301 306 310 309 308 301 306 302 305 305 306 307 310 308 310 314 308 303 309 310 312 312 310 314 305 308 301 300
317 317 317 316 316 316 317 316 316 314 312 310 321 313 320 324 322 316 305 306 308 311 311 308 306 305 305 305 305 305 306 309 310 310 312 311 308 306 309 307 307 307 307 309 309 308 302
317 317 316 317 316 316 317 316 315 313 310 310 320 310 323 325 313 313 307 308 302 309 311 309 309 308 306 306 306 306 305 308 312 312 306 312 309 304 306 312 312 312 308 309 304 303 306
317 317 317 316 316 316 317 315 314 312 311 321 318 315 323 321 307 307 309 307 308 307 308 308 306 309 309 306 304 305 307 311 311 311 311 311 307 302 302 308 311 309 311 310 309 309 305
316 316 316 316 317 316 317 315 314 312 311 317 318 309 315 318 316 310 307 305 303 307 307 308 307 310 307 305 308 305 306 309 310 311 315 313 308 306 297 304 308 306 307 309 309 304 306
315 315 315 316 317 317 316 315 314 313 312 317 319 312 315 307 310 311 310 306 302 303 308 309 306 307 306 304 304 305 307 309 310 309 311 310 305 307 307 307 308 307 307 307 306 307 305
315 316 316 316 317 317 316 316 315 314 311 322 318 317 315 314 311 310 304 305 303 304 306 304 305 305 307 306 307 304 307 307 306 310 309 310 303 306 304 306 306 304 306 307 308 309 308
314 315 316 316 317 318 317 316 315 314 313 324 326 324 319 306 311 309 307 306 305 308 307 307 306 306 304 306 309 311 312 312 311 309 308 306 305 303 299 305 304 301 305 306 308 311 311
315 315 316 317 316 317 317 316 316 315 313 324 326 324 315 307 310 309 307 307 306 308 305 306 308 306 310 312 311 310 310 311 310 310 311 308 307 305 301 304 296 305 313 311 309 312 314
315 316 316 316 316 316 317 317 316 316 314 320 327 323 318 308 310 308 307 307 308 308 306 306 309 310 313 310 304 302 302 304 306 309 309 310 308 303 299 299 302 306 309 308 307 307 314
315 315 316 316 316 316 317 317 316 316 314 319 327 327 322 313 309 311 309 309 308 308 307 308 313 315 312 307 305 296 296 300 300 302 309 308 310 304 302 297 293 303 309 313 313 304 316
313 314 315 315 316 316 316 316 316 317 315 316 326 331 324 317 316 316 311 310 312 309 306 309 310 310 313 304 301 301 298 303 300 299 301 302 303 300 300 298 302 309 310 311 299 307 317
313 314 315 315 315 316 316 316 316 316 315 316 328 332 325 316 316 317 316 314 314 313 306 312 307 310 307 303 303 304 302 302 303 304 302 301 300 299 301 297 294 313 310 304 316 319 319
313 314 315 315 315 316 316 316 316 317 315 315 324 329 330 321 318 322 320 320 317 315 311 313 309 311 310 306 308 307 304 303 302 298 308 299 303 301 302 303 314 314 316 319 320 319 321

GFSGBSN_sfc_thetae_126.txt.gz
Theta_e
325 324 324 324 323 323 324 323 321 319 319 319 318 318 318 318 317 317 318 317 318 318 318 318 318 319 318 314 312 331 342 337 317 315 322 323 319 318 320 327 330 327 329 331 334 334 332
327 326 325 324 323 323 323 323 322 319 319 318 318 317 318 317 317 317 317 317 317 317 317 318 319 319 314 310 321 328 324 320 314 316 322 325 321 321 318 326 327 332 331 332 334 332 334
325 325 324 324 323 323 323 323 322 319 319 318 318 317 318 317 317 316 316 316 316 317 317 319 319 318 314 313 320 328 321 315 317 319 321 325 325 319 320 326 332 331 327 331 332 331 328
324 324 323 323 323 323 323 322 321 320 319 319 318 318 318 317 317 316 315 315 315 316 317 319 319 319 313 320 324 326 324 318 318 322 323 324 324 320 318 328 328 324 326 321 329 332 330
322 323 323 323 323 323 322 321 320 319 319 319 318 318 318 317 317 316 315 315 316 318 319 320 318 317 313 319 315 327 325 320 320 321 323 323 321 317 321 320 318 319 317 320 324 332 329
322 322 321 320 321 321 320 320 319 319 319 318 318 318 318 317 316 316 315 316 320 319 319 321 320 314 316 310 318 324 324 323 317 318 317 315 314 311 317 318 310 313 315 319 321 328 328
319 320 319 319 319 319 319 319 319 319 318 318 318 318 317 317 316 315 315 323 320 317 322 314 313 314 313 317 323 319 321 320 316 313 307 311 306 306 315 320 319 320 316 315 322 326 326
319 319 321 320 320 320 320 318 319 319 318 317 317 317 317 315 315 313 315 317 316 318 310 319 316 314 318 321 312 314 318 311 309 304 308 307 303 311 319 321 318 317 314 317 319 322 326
320 320 319 319 320 320 320 318 318 318 318 318 317 317 315 315 314 312 317 319 323 321 312 314 314 313 315 318 312 312 314 310 306 305 306 305 307 312 314 316 314 316 314 317 312 319 324
319 319 319 319 319 319 319 318 318 318 317 317 317 315 314 313 310 321 320 324 323 322 306 305 308 313 315 316 311 318 316 313 309 304 307 307 312 310 311 312 318 311 319 320 314 313 311
318 318 318 318 319 319 319 317 318 318 317 317 315 314 313 311 315 315 321 323 323 320 294 307 309 320 317 311 313 313 317 313 307 307 307 306 308 309 309 312 318 312 318 317 315 315 312
318 318 319 318 318 318 318 317 317 317 317 316 315 314 313 316 317 319 322 323 320 304 293 305 311 309 310 311 312 313 312 315 313 307 308 309 314 312 314 317 317 318 315 316 314 311 305
319 318 318 318 317 317 317 316 316 316 316 315 313 312 312 319 317 324 323 319 305 297 308 303 305 309 308 308 310 309 306 306 305 300 301 307 310 314 315 311 315 313 310 302 301 304 303
318 318 317 317 317 316 317 316 316 316 315 313 310 309 315 319 321 323 320 311 296 305 304 309 308 308 305 308 309 307 305 304 310 307 304 302 301 310 313 311 309 310 310 303 299 300 303
318 318 317 316 316 316 317 316 315 315 314 312 309 322 318 323 322 321 314 304 303 305 307 304 308 302 304 308 307 306 306 305 308 310 303 302 303 312 313 313 313 309 305 311 305 306 303
318 318 317 316 316 316 316 316 315 315 314 311 318 321 317 323 323 318 311 303 307 310 310 310 302 307 302 305 305 306 306 309 307 311 312 308 302 310 311 313 312 309 312 303 305 299 298
318 318 317 317 317 316 316 316 315 314 313 311 317 315 319 324 323 315 307 305 307 311 312 308 306 304 305 304 305 305 305 309 311 309 311 310 307 305 310 306 305 306 305 307 308 306 300
317 317 316 316 316 317 316 316 315 313 311 310 319 312 322 324 312 314 308 308 304 309 311 309 310 309 306 307 306 305 305 308 312 312 306 310 307 303 306 311 311 310 307 306 303 303 305
317 315 315 316 316 317 317 316 314 312 311 316 316 314 323 322 308 308 309 308 309 308 308 309 307 309 310 307 304 307 306 311 312 311 309 311 305 301 303 308 310 306 308 309 307 308 306
315 316 316 316 316 317 317 316 314 312 312 315 318 307 315 317 317 311 307 305 303 307 308 309 309 310 307 305 310 307 307 309 311 311 320 315 307 304 297 304 309 307 307 309 307 302 302
315 315 316 316 316 317 317 316 314 313 312 315 318 312 314 308 311 310 309 306 303 303 308 309 306 308 307 305 306 306 309 309 309 308 310 309 304 306 306 308 308 308 307 307 305 307 304
314 315 316 316 317 317 317 317 315 313 312 320 319 317 316 314 313 310 305 306 303 305 307 305 305 305 307 305 306 305 307 307 307 310 308 310 303 305 303 306 306 304 307 308 307 307 307
314 315 316 316 317 317 317 317 316 314 313 325 326 326 318 308 310 309 307 306 305 308 307 307 306 306 305 307 308 309 310 310 312 309 308 307 304 303 299 304 304 300 305 306 307 309 310
314 315 316 317 317 317 317 317 317 315 314 318 326 324 318 310 309 309 309 308 307 308 306 307 308 307 310 313 311 308 307 308 310 309 311 308 307 305 299 303 294 306 312 311 308 311 314
314 314 314 315 316 317 317 318 318 316 316 315 321 323 319 313 312 310 308 308 309 309 307 306 309 310 313 310 304 302 302 303 305 308 308 310 307 302 299 297 302 307 310 309 308 307 315
314 314 314 315 316 316 316 317 317 317 316 314 324 330 321 316 309 312 308 309 307 308 308 309 313 314 311 307 304 298 295 300 300 303 308 308 309 303 300 296 292 305 310 312 312 305 317
313 313 314 315 316 316 317 317 317 317 316 313 319 327 323 317 318 316 311 310 311 310 307 311 310 309 313 304 300 300 299 304 300 299 301 302 303 299 299 297 301 310 311 311 299 306 317
313 313 314 315 316 316 316 316 317 316 317 313 320 330 325 321 316 317 318 315 312 310 306 310 308 309 307 303 302 302 302 304 301 304 302 301 299 299 300 298 295 313 310 304 313 318 318
313 313 314 315 315 315 316 316 317 317 317 314 319 328 330 324 318 322 320 319 317 315 311 309 309 311 310 306 307 306 303 304 303 298 307 299 303 301 303 303 314 314 315 317 317 318 318